Regional Weather Roundup
Issued by NWS Cleveland, OH

Home | Current Version | Previous Version | Graphics & Text | Print | Product List | Glossary On
Versions: 1 2 3 4 5 6 7 8 9 10 11 12 13 14 15 16 17 18 19 20 21 22 23 24 25 26 27 28 29 30 31 32 33 34 35 36 37 38 39 40 41 42 43 44 45 46 47 48 49 50
590
ASUS41 KCLE 270402
RWRCLE
OHIO REGIONAL WEATHER ROUNDUP
NATIONAL WEATHER SERVICE CLEVELAND, OH
1200 AM EDT WED JUL 27 2016

NOTE: "FAIR" INDICATES FEW OR NO CLOUDS BELOW 12,000 FEET WITH NO
SIGNIFICANT WEATHER AND/OR OBSTRUCTIONS TO VISIBILITY.

OHZ001>008-015>018-024>027-034-035-043-044-270500-
   NORTHWEST OHIO

CITY           SKY/WX    TMP DP  RH WIND       PRES   REMARKS
DEFIANCE       CLEAR     71  64  78 CALM      30.02S
FINDLAY        MOCLDY    72  61  68 S3        30.02R
TOLEDO EXPRESS CLEAR     67  66  97 CALM      30.01S
TOLEDO EXEC    CLEAR     73  62  68 SE5       30.02S
LIMA           CLEAR     69  64  84 E6        30.03S
$$

OHZ009>014-019>023-028>033-038-089-270500-
   NORTHEAST OHIO

CITY           SKY/WX    TMP DP  RH WIND       PRES   REMARKS
CLE-HOPKINS    PTCLDY    71  58  63 CALM      30.03F
CLE-LAKEFRONT  CLEAR     77  60  55 CALM      30.00S
CUY CO. ARPT   NOT AVBL
LORAIN-ELYRIA  MOCLDY    65  58  78 CALM      30.03S
ASHTABULA      CLEAR     61  61 100 CALM      30.03S
AKRON-CANTON   PTCLDY    71  56  58 NE3       30.04R
WOOSTER        PTCLDY    63  60  90 CALM      30.04S
MANSFIELD      CLOUDY    75  56  51 CALM      30.05R
YOUNGSTOWN     PTCLDY    65  58  78 CALM      30.03S
$$

OHZ042-051>053-060>062-070>072-077>081-270500-
  SOUTHWEST OHIO

CITY           SKY/WX    TMP DP  RH WIND       PRES   REMARKS
CINC-COVINGTON MOCLDY    76  74  93 CALM      30.02S
CINC-LUNKEN    MOCLDY    76  76 100 CALM      30.01S
HAMILTON       PTCLDY    73  71  93 W3        30.02S
DAYTON         CLOUDY    76  68  76 CALM      30.03S
WRIGHT-PAT AFB CLOUDY    76  69  80 NW2       30.02S
DAYTON GENERAL CLOUDY    76  69  79 CALM      30.02S
WILMINGTON     CLOUDY    75  74  96 CALM      30.02F
$$

OHZ036-037-039>041-045>050-054>059-063>069-073>076-082>088-270500-
  CENTRAL AND SOUTHEAST OHIO

CITY           SKY/WX    TMP DP  RH WIND       PRES   REMARKS
COLUMBUS       CLOUDY    77  72  84 S3        30.00S
OSU AIRPORT    CLOUDY    76  70  82 N5        30.01S
BOLTON FIELD   CLOUDY    73  72  97 CALM      30.02S
RICKENBACK AFB CLOUDY    73  71  93 CALM      30.00F
NEWARK         CLOUDY    76  73  91 CALM      30.01S
MARION         CLOUDY    73  62  68 CALM      30.03F
LANCASTER      CLOUDY    73  72  96 CALM      30.02S
ZANESVILLE     CLOUDY    77  72  84 CALM      30.01S
NEW PHILLY     CLOUDY    77  59  53 CALM      30.03R
$$




USA.gov is the U.S. government's official web portal to all federal, state and local government web resources and services.